Location: Sungai Buloh
(3.1000°N, 113.0000°E)
Time: 16:06:24
(UTC+00:00)

Delta 7925 Rocket - Pass Details

Date: 12 January 2026
Orbit: 645 x 1641 km, 26.3° (Epoch: 10 February)

Event Time Altitude Azimuth Distance (km) Brightness Sun altitude
Exits shadow 21:21:33 28° 261° (W) 1,490 4.5 -18.6°
Maximum altitude 21:24:08 46° 206° (SSW) 1,159 4.3 -18.0°
Drops below altitude 10° 21:30:39 10° 134° (SE) 2,871 7.5 -16.4°
Sets 21:33:52 0° 128° (SE) 4,005 8.7 -15.7°
